Torna al catalogo

STARLINK-5411

AttivoComunicazioniVLEO
NORAD 54865·PAYLOAD·🇺🇸 United States

Lanciato Dec 28, 2022 da Cape Canaveral Space Force Station

Loading…

Prossimi Passaggi (prossime 24 ore)

TLE

AggiornatoSource: CelesTrak SupGP

Epoca: Sep 15, 2026, 02:59 UTC

1 54865C 22177AX  26258.12479167  .00052821  00000+0  19121-2 0  2588
2 54865  42.9995 131.7244 0001563 245.6356  76.0282 15.27569776    17

Traccia STARLINK-5411 in tempo reale con AllMySat

Download on the App Store